Home   Weather   Germany   Bernau bei Berlin   Past weeks
Flag for Germany

Past Weather in Bernau bei Berlin, Brandenburg, Germany — Yesterday and Last 2 Weeks

Currently: 43 °F. Partly sunny. (Weather station: Berlin-Schoenefeld, Germany). See more current weather

Past Weather in Bernau bei Berlin — Graph

°F

Bernau bei Berlin Temperature Yesterday

Maximum temperature yesterday: 39 °F (at 1:50 am)
Minimum temperature yesterday: 34 °F (at 7:50 pm)
Average temperature yesterday: 37 °F

High & Low Weather Summary for the Past Weeks

 TemperatureHumidityPressure
High45 °F (Jan 14, 5:20 pm)100% (Jan 9, 8:20 pm)30.63 "Hg (Jan 9, 8:20 pm)
Low23 °F (Jan 11, 8:20 pm)52% (Jan 21, 4:50 pm)29.42 "Hg (Jan 9, 5:20 am)
Average36 °F86%30.24 "Hg
* Reported Jan 8 1:20 pm — Jan 23 1:20 pm, Bernau bei Berlin. Weather by CustomWeather, © 2022

Note: Actual official high and low records may vary slightly from our data, if they occured in-between our weather recording intervals... More about our weather records

Bernau bei Berlin Weather History for the Previous 24 Hours

Scroll right to see more
 ConditionsComfort  
Time TempWeatherWind HumidityBarometerVisibility
1:20 pm
Sun, Jan 23
43 °FPartly sunny.6 mph93%30.48 "HgN/A
12:50 pm43 °FDrizzle. Partly sunny.8 mph93%30.48 "Hg5 mi
12:20 pm43 °FDrizzle. Partly sunny.7 mph93%30.48 "HgN/A
11:50 am43 °FDrizzle. Partly sunny.8 mph93%30.48 "Hg5 mi
10:50 am43 °FDrizzle. Partly sunny.10 mph93%30.48 "Hg5 mi
10:20 am41 °FPartly sunny.9 mph100%30.48 "HgN/A
9:50 am41 °FPartly sunny.9 mph100%30.48 "HgN/A
9:20 am41 °FPartly sunny.8 mph93%30.45 "HgN/A
8:50 am41 °FDrizzle. Partly sunny.8 mph93%30.45 "Hg5 mi
8:20 am41 °FDrizzle. Partly sunny.8 mph93%30.45 "Hg4 mi
7:50 am41 °FPassing clouds.7 mph93%30.45 "Hg2 mi
7:20 am41 °FPassing clouds.7 mph93%30.45 "Hg5 mi
6:50 am41 °FPassing clouds.8 mph93%30.42 "Hg3 mi
6:20 am41 °FPassing clouds.10 mph93%30.42 "HgN/A
5:50 am41 °FPassing clouds.9 mph93%30.42 "Hg5 mi
5:20 am41 °FPassing clouds.9 mph93%30.42 "HgN/A
4:50 am41 °FPassing clouds.10 mph93%30.42 "HgN/A
4:20 am41 °FPassing clouds.9 mph93%30.42 "HgN/A
3:50 am41 °FPassing clouds.7 mph93%30.39 "HgN/A
3:20 am41 °FPassing clouds.8 mph93%30.42 "Hg3 mi
2:20 am39 °FPassing clouds.6 mph100%30.39 "Hg4 mi
1:50 am37 °FDrizzle. Fog.6 mph100%30.39 "Hg2 mi
1:20 am37 °FDrizzle. Fog.3 mph100%30.42 "Hg2 mi
12:50 am37 °FLight rain. Fog.5 mph93%30.42 "Hg1 mi
12:20 am36 °FDrizzle. Fog.3 mph100%30.39 "Hg1 mi
11:50 pm
Sat, Jan 22
36 °FDrizzle. Fog.3 mph100%30.39 "Hg1 mi
11:20 pm36 °FDrizzle. Fog.3 mph100%30.39 "Hg1 mi
10:50 pm36 °FPassing clouds.3 mph93%30.39 "Hg5 mi
10:20 pm36 °FPassing clouds.3 mph87%30.39 "HgN/A
9:50 pm36 °FPartly cloudy.2 mph93%30.39 "HgN/A
9:20 pm36 °FPassing clouds.2 mph87%30.39 "HgN/A
8:50 pm36 °FPassing clouds.5 mph87%30.39 "HgN/A
8:20 pm34 °FPassing clouds.3 mph93%30.39 "HgN/A
7:50 pm34 °FClear.5 mph87%30.39 "Hg10 mi
7:20 pm36 °FClear.2 mph87%30.39 "Hg10 mi
6:50 pm36 °FClear.6 mph87%30.39 "Hg10 mi
6:20 pm36 °FClear.5 mph81%30.39 "Hg10 mi
5:50 pm36 °FClear.5 mph81%30.39 "Hg10 mi
5:20 pm36 °FClear.5 mph81%30.39 "Hg10 mi
4:50 pm36 °FClear.3 mph75%30.39 "Hg10 mi
4:20 pm37 °FSunny.6 mph70%30.39 "Hg10 mi
3:50 pm39 °FSunny.7 mph70%30.36 "Hg10 mi
3:20 pm39 °FSunny.7 mph65%30.36 "Hg10 mi
2:50 pm37 °FSunny.7 mph65%30.36 "Hg10 mi
2:20 pm37 °FPassing clouds.7 mph70%30.36 "HgN/A
Weather by CustomWeather, © 2022

See weather overview